Temp
-14 -14 -14 -13 -13 -14 -14 -14 -13 -13 -13 -13 -14 -14 -14 -14 -14 -14 -14 -14 -14 -14 -15 -15 -14 -14 -14 -14 -14 -14 -14 -14 -14 -14 -14 -14 -14 -14 -14 -14 -14 -14
-14 -14 -14 -14 -13 -13 -14 -14 -14 -14 -13 -13 -14 -14 -14 -14 -14 -15 -14 -14 -15 -15 -15 -15 -14 -14 -14 -14 -14 -14 -14 -14 -14 -14 -14 -14 -14 -14 -14 -14 -14 -14
-14 -14 -14 -14 -13 -13 -13 -14 -14 -14 -14 -14 -14 -14 -14 -14 -14 -15 -14 -14 -15 -15 -15 -14 -15 -15 -14 -14 -14 -14 -14 -14 -14 -14 -14 -14 -14 -14 -14 -14 -14 -14
-14 -14 -14 -14 -14 -14 -14 -14 -14 -14 -14 -14 -14 -14 -14 -14 -15 -14 -14 -15 -15 -15 -15 -15 -15 -15 -14 -14 -14 -14 -14 -14 -14 -14 -14 -14 -14 -14 -14 -14 -14 -14
-15 -15 -15 -15 -15 -14 -14 -14 -14 -14 -14 -14 -14 -14 -15 -15 -14 -15 -15 -15 -15 -15 -15 -15 -15 -15 -15 -15 -15 -15 -14 -14 -14 -14 -14 -14 -14 -14 -14 -14 -14 -14
-16 -16 -16 -16 -15 -15 -15 -14 -14 -14 -14 -14 -14 -15 -15 -15 -14 -15 -15 -15 -15 -15 -15 -15 -15 -15 -15 -15 -15 -15 -15 -15 -15 -15 -14 -14 -14 -14 -14 -14 -14 -14
-16 -16 -16 -15 -15 -15 -15 -15 -14 -14 -14 -14 -15 -15 -15 -15 -14 -14 -15 -15 -15 -15 -15 -15 -15 -15 -15 -15 -15 -15 -15 -15 -15 -15 -15 -15 -15 -15 -15 -14 -14 -14
-15 -15 -15 -15 -15 -15 -15 -14 -15 -15 -14 -14 -14 -15 -15 -15 -15 -15 -15 -15 -15 -15 -15 -15 -15 -15 -15 -15 -15 -15 -15 -15 -15 -15 -15 -15 -15 -15 -15 -15 -15 -15
-15 -15 -15 -15 -14 -15 -14 -14 -15 -15 -15 -14 -14 -14 -15 -15 -15 -14 -15 -15 -15 -15 -15 -15 -15 -15 -15 -15 -15 -15 -15 -15 -15 -15 -15 -15 -15 -15 -15 -15 -15 -15
-15 -14 -14 -14 -14 -14 -14 -15 -15 -15 -15 -14 -14 -14 -14 -14 -14 -14 -15 -15 -15 -15 -15 -15 -15 -15 -15 -15 -15 -15 -15 -15 -15 -15 -15 -15 -15 -15 -15 -15 -15 -15
-14 -14 -14 -15 -15 -14 -14 -15 -15 -15 -15 -15 -14 -14 -14 -14 -14 -14 -15 -15 -15 -15 -15 -15 -15 -16 -16 -16 -16 -16 -15 -15 -15 -15 -15 -15 -15 -15 -15 -15 -15 -15
-15 -15 -15 -15 -14 -14 -14 -15 -15 -15 -15 -15 -14 -14 -14 -14 -14 -15 -15 -15 -15 -15 -15 -15 -16 -16 -16 -16 -16 -16 -16 -15 -15 -16 -15 -15 -15 -15 -15 -15 -15 -15
-14 -14 -14 -14 -14 -14 -14 -14 -15 -15 -15 -15 -14 -14 -14 -15 -15 -15 -15 -15 -15 -15 -15 -15 -16 -16 -16 -16 -16 -16 -16 -16 -16 -16 -15 -15 -15 -15 -15 -15 -15 -15
-14 -14 -14 -14 -14 -14 -14 -14 -15 -15 -15 -15 -15 -14 -14 -15 -15 -15 -15 -15 -15 -15 -15 -16 -16 -16 -16 -16 -16 -16 -16 -16 -16 -16 -15 -15 -15 -15 -15 -15 -15 -15
-14 -14 -14 -14 -14 -14 -14 -14 -15 -15 -15 -15 -15 -15 -15 -15 -15 -15 -15 -15 -15 -15 -15 -16 -16 -16 -16 -16 -16 -16 -16 -16 -16 -16 -16 -16 -16 -16 -15 -15 -15 -15
-14 -14 -14 -14 -14 -14 -14 -14 -15 -15 -14 -15 -15 -15 -15 -15 -15 -15 -15 -15 -15 -16 -16 -16 -16 -16 -16 -17 -17 -17 -16 -16 -16 -16 -16 -16 -16 -16 -16 -16 -16 -16
-14 -14 -14 -14 -14 -14 -14 -14 -15 -14 -14 -15 -15 -15 -15 -15 -15 -15 -16 -16 -16 -16 -16 -16 -17 -17 -17 -17 -17 -17 -17 -16 -16 -16 -16 -16 -16 -16 -16 -16 -16 -16
-14 -14 -14 -14 -14 -14 -14 -14 -14 -14 -15 -15 -15 -15 -15 -15 -15 -16 -16 -16 -16 -16 -16 -17 -17 -17 -17 -17 -17 -17 -17 -16 -16 -16 -17 -17 -16 -16 -16 -16 -16 -16
-14 -14 -14 -14 -14 -14 -14 -15 -15 -14 -15 -15 -15 -15 -15 -15 -15 -16 -16 -16 -16 -16 -16 -17 -17 -16 -16 -16 -16 -16 -16 -16 -16 -17 -17 -17 -17 -17 -17 -16 -16 -16
-14 -14 -14 -14 -14 -14 -15 -15 -15 -15 -15 -15 -15 -15 -15 -15 -16 -16 -16 -16 -16 -16 -16 -16 -16 -16 -16 -16 -16 -17 -17 -17 -17 -17 -17 -17 -17 -17 -17 -17 -16 -16
-14 -14 -14 -14 -14 -15 -15 -15 -15 -15 -15 -15 -15 -15 -15 -16 -16 -16 -16 -16 -16 -16 -16 -16 -16 -16 -16 -16 -16 -17 -17 -17 -17 -17 -17 -17 -17 -17 -17 -17 -17 -17
-14 -14 -14 -14 -14 -14 -14 -15 -15 -14 -14 -15 -15 -15 -16 -16 -16 -16 -16 -16 -16 -16 -16 -16 -16 -16 -16 -16 -16 -16 -17 -17 -17 -17 -17 -17 -17 -17 -17 -17 -17 -17
-14 -14 -14 -14 -15 -15 -14 -14 -14 -14 -14 -15 -15 -15 -16 -16 -16 -16 -16 -16 -16 -16 -16 -16 -16 -16 -16 -16 -16 -16 -16 -17 -17 -16 -17 -17 -17 -17 -17 -17 -17 -17
-14 -14 -14 -14 -14 -14 -14 -15 -15 -14 -15 -15 -15 -15 -15 -16 -16 -16 -16 -16 -16 -16 -16 -16 -16 -16 -16 -16 -16 -16 -16 -17 -16 -16 -16 -17 -17 -17 -17 -17 -17 -17
-15 -15 -15 -15 -14 -14 -14 -14 -15 -15 -15 -15 -15 -15 -15 -15 -16 -16 -16 -16 -16 -16 -16 -16 -16 -16 -16 -16 -16 -16 -16 -16 -16 -16 -17 -17 -17 -17 -17 -17 -17 -17
-15 -15 -15 -15 -15 -15 -15 -15 -15 -15 -15 -15 -15 -15 -15 -16 -16 -16 -16 -16 -16 -16 -16 -16 -16 -16 -17 -17 -17 -16 -16 -16 -16 -16 -17 -17 -16 -16 -17 -17 -17 -17
Height
5769 5770 5771 5771 5771 5772 5772 5773 5774 5774 5775 5776 5777 5778 5778 5779 5781 5783 5784 5786 5786 5787 5788 5789 5790 5792 5792 5793 5793 5794 5795 5795 5796 5796 5796 5797 5798 5798 5798 5799 5800 5800
5766 5767 5767 5768 5769 5769 5770 5770 5771 5771 5772 5773 5774 5775 5776 5777 5779 5780 5781 5783 5784 5784 5785 5787 5788 5789 5790 5791 5791 5792 5793 5793 5794 5794 5795 5796 5796 5796 5797 5797 5797 5798
5762 5763 5764 5765 5766 5766 5767 5767 5768 5768 5769 5770 5772 5773 5773 5775 5776 5777 5778 5780 5781 5782 5783 5784 5786 5787 5788 5789 5790 5790 5791 5791 5792 5793 5794 5794 5794 5795 5795 5795 5795 5796
5759 5760 5761 5762 5763 5763 5764 5765 5765 5766 5767 5768 5769 5770 5771 5772 5773 5775 5776 5777 5779 5780 5781 5782 5783 5784 5785 5787 5787 5788 5789 5789 5790 5791 5792 5792 5792 5793 5792 5792 5793 5794
5755 5757 5758 5759 5760 5761 5762 5762 5763 5764 5765 5765 5766 5768 5768 5769 5771 5772 5773 5774 5776 5778 5779 5779 5781 5782 5783 5784 5785 5786 5787 5787 5788 5788 5789 5789 5790 5790 5790 5790 5791 5791
5753 5754 5755 5757 5758 5758 5759 5760 5761 5762 5762 5763 5764 5764 5765 5766 5768 5769 5770 5771 5773 5776 5777 5777 5778 5779 5781 5782 5783 5784 5785 5785 5786 5786 5787 5787 5787 5788 5788 5788 5789 5789
5754 5755 5755 5755 5756 5756 5757 5758 5759 5760 5761 5761 5761 5761 5763 5764 5766 5766 5767 5769 5771 5773 5774 5775 5776 5777 5779 5780 5781 5782 5783 5783 5784 5784 5784 5784 5785 5785 5786 5786 5786 5786
5754 5754 5754 5755 5755 5754 5755 5756 5756 5757 5758 5759 5759 5759 5761 5763 5764 5765 5765 5766 5768 5770 5771 5772 5774 5775 5777 5778 5779 5780 5781 5781 5781 5781 5781 5782 5783 5783 5783 5784 5784 5784
5750 5750 5750 5751 5751 5751 5752 5753 5754 5754 5755 5756 5756 5757 5759 5760 5762 5763 5764 5765 5767 5768 5768 5770 5772 5773 5775 5775 5776 5777 5778 5779 5779 5779 5779 5780 5780 5781 5781 5781 5782 5782
5746 5746 5746 5746 5747 5747 5748 5750 5750 5751 5752 5753 5753 5755 5756 5757 5759 5760 5761 5762 5764 5766 5766 5767 5769 5771 5772 5773 5774 5775 5775 5776 5776 5777 5777 5778 5778 5778 5779 5779 5779 5780
5743 5743 5743 5744 5744 5744 5745 5746 5747 5748 5749 5750 5751 5752 5754 5755 5757 5757 5758 5759 5762 5763 5764 5766 5767 5768 5769 5770 5771 5772 5772 5773 5774 5775 5775 5775 5776 5776 5776 5777 5777 5778
5740 5740 5740 5741 5741 5741 5742 5743 5744 5745 5746 5747 5749 5750 5751 5752 5753 5754 5755 5757 5759 5761 5762 5763 5764 5765 5766 5767 5768 5769 5769 5770 5772 5772 5772 5773 5773 5774 5774 5775 5775 5775
5736 5736 5736 5737 5738 5738 5739 5740 5741 5742 5743 5744 5746 5747 5747 5748 5750 5751 5753 5755 5757 5758 5759 5761 5761 5762 5763 5765 5766 5766 5767 5768 5769 5769 5770 5770 5771 5771 5772 5773 5773 5773
5732 5732 5733 5734 5735 5736 5736 5737 5738 5739 5740 5741 5743 5744 5744 5745 5747 5749 5751 5753 5755 5756 5757 5758 5758 5760 5761 5762 5763 5764 5764 5765 5766 5766 5767 5768 5768 5769 5770 5772 5773 5772
5730 5730 5731 5731 5732 5733 5735 5735 5736 5737 5738 5739 5740 5740 5741 5743 5745 5747 5749 5751 5752 5753 5754 5755 5756 5757 5758 5759 5760 5761 5762 5763 5763 5764 5765 5765 5766 5766 5768 5769 5770 5770
5728 5728 5729 5729 5729 5731 5732 5733 5735 5736 5737 5737 5738 5738 5740 5742 5743 5744 5746 5748 5749 5750 5751 5753 5754 5754 5755 5756 5757 5758 5759 5761 5761 5762 5762 5763 5763 5764 5765 5766 5766 5766
5725 5726 5726 5727 5727 5728 5730 5731 5732 5734 5734 5735 5736 5737 5738 5740 5741 5742 5744 5745 5745 5747 5748 5750 5751 5751 5752 5753 5754 5755 5757 5758 5759 5759 5760 5760 5761 5762 5762 5763 5763 5763
5721 5723 5723 5724 5724 5726 5727 5728 5730 5731 5732 5733 5734 5735 5736 5737 5738 5740 5741 5741 5742 5744 5745 5747 5748 5749 5749 5750 5751 5752 5754 5755 5756 5757 5757 5757 5758 5759 5759 5760 5760 5761
5718 5720 5720 5721 5722 5723 5725 5726 5727 5729 5730 5731 5732 5733 5733 5734 5735 5737 5738 5739 5740 5741 5742 5744 5745 5746 5747 5748 5748 5749 5750 5751 5752 5754 5754 5754 5755 5756 5756 5756 5757 5758
5715 5717 5718 5718 5719 5720 5722 5723 5724 5727 5728 5728 5729 5730 5731 5732 5733 5734 5735 5737 5738 5739 5740 5741 5742 5743 5744 5745 5746 5746 5747 5748 5749 5750 5751 5752 5752 5753 5753 5753 5754 5754
5713 5714 5715 5716 5717 5718 5719 5720 5721 5723 5724 5725 5725 5727 5728 5729 5730 5732 5733 5734 5735 5736 5737 5738 5739 5740 5741 5742 5743 5743 5744 5745 5745 5746 5747 5748 5749 5749 5750 5750 5750 5750
5711 5712 5712 5714 5715 5715 5716 5717 5718 5719 5721 5721 5722 5724 5725 5726 5728 5729 5730 5731 5731 5733 5734 5735 5736 5737 5738 5739 5740 5740 5741 5742 5742 5743 5744 5744 5745 5745 5746 5746 5747 5747
5710 5710 5710 5712 5713 5714 5715 5716 5716 5717 5718 5719 5720 5721 5722 5723 5725 5726 5727 5728 5728 5729 5730 5731 5732 5733 5734 5736 5737 5737 5738 5739 5739 5739 5740 5741 5741 5741 5742 5742 5742 5743
5708 5708 5709 5710 5711 5712 5713 5714 5714 5715 5715 5716 5717 5719 5720 5720 5721 5722 5723 5724 5725 5726 5727 5728 5729 5730 5731 5732 5733 5734 5735 5736 5735 5736 5737 5737 5737 5737 5737 5738 5738 5738
5705 5706 5707 5708 5709 5709 5710 5710 5711 5712 5712 5713 5715 5716 5716 5717 5718 5719 5720 5720 5721 5723 5724 5725 5726 5727 5728 5729 5730 5731 5731 5732 5731 5732 5733 5733 5733 5733 5733 5733 5734 5734
5703 5704 5705 5706 5706 5707 5707 5707 5708 5708 5709 5710 5711 5712 5712 5713 5714 5715 5716 5717 5718 5719 5720 5721 5723 5724 5725 5726 5727 5727 5727 5728 5728 5728 5729 5729 5729 5729 5729 5730 5730 5730
Wind_Speed
18 18 16 15 15 16 17 18 19 22 24 24 24 22 21 22 21 21 20 19 19 19 19 20 21 21 20 20 20 20 19 19 19 19 18 17 15 15 15 14 14 14
23 22 21 19 17 17 18 19 20 22 24 25 25 23 22 21 21 21 21 20 19 19 19 20 22 22 22 21 20 20 20 20 20 19 18 17 16 16 15 16 16 15
25 26 25 23 21 21 21 22 22 23 24 24 24 24 23 22 22 22 21 20 19 19 21 22 23 23 22 21 21 21 21 21 21 20 19 18 17 16 16 17 16 15
24 24 23 23 23 24 25 25 24 23 23 23 23 24 24 24 24 22 20 20 19 20 23 24 23 23 22 21 21 21 21 22 22 21 20 19 18 17 17 18 17 15
22 22 21 22 24 25 25 26 25 23 23 23 22 23 25 27 26 22 21 21 20 21 23 24 23 23 22 21 22 22 22 23 22 21 20 20 19 18 18 17 16 16
21 21 21 21 22 23 23 23 24 24 24 23 22 24 27 29 27 23 22 21 20 21 23 24 24 24 23 22 22 23 23 23 23 22 21 20 19 18 18 17 16 16
18 19 20 21 20 20 20 19 20 23 24 23 23 25 28 29 27 23 22 21 20 21 24 24 24 24 23 23 23 23 24 23 23 22 21 20 18 17 17 16 16 16
16 18 19 20 20 20 19 18 18 20 23 25 25 25 27 29 27 23 21 21 21 23 25 25 24 24 24 24 24 24 24 23 23 22 21 20 18 17 17 16 16 16
19 20 20 21 22 22 20 18 17 20 24 26 26 25 27 29 27 24 23 22 22 24 26 25 25 24 24 24 24 23 23 24 24 23 21 20 18 18 17 16 16 16
21 22 22 22 23 24 23 19 19 22 25 26 26 25 26 28 27 25 24 23 23 24 25 25 25 25 24 24 24 23 24 24 24 22 21 20 19 19 18 17 17 17
21 22 23 23 24 25 25 21 21 23 26 27 26 25 25 27 27 26 24 24 24 24 24 24 23 24 24 24 24 23 24 24 23 22 21 21 20 19 19 18 18 18
20 21 23 24 24 24 25 24 23 25 27 28 27 25 26 28 28 26 25 25 25 25 24 22 22 24 25 25 24 24 24 24 22 22 22 21 20 20 20 19 19 19
19 21 22 24 23 23 24 25 25 26 29 28 27 26 28 30 30 29 27 25 25 25 23 23 24 25 25 25 24 24 24 23 23 22 22 21 20 20 19 18 19 19
19 22 21 22 23 24 24 25 27 28 29 28 27 27 28 29 30 28 26 25 24 24 24 24 25 25 25 25 25 24 24 24 23 23 22 21 20 19 18 17 18 19
18 19 20 22 25 26 23 24 26 27 27 26 27 29 29 27 26 25 24 24 24 25 25 25 24 24 25 25 25 25 25 24 24 23 22 20 20 19 18 17 19 20
18 18 19 21 24 26 23 23 26 28 28 26 27 28 28 25 25 25 24 25 26 26 25 24 24 24 25 25 25 25 25 24 24 23 22 21 21 20 19 19 19 19
20 19 19 20 23 25 23 23 28 30 28 26 26 27 26 26 27 26 25 26 26 25 25 24 24 24 24 25 25 25 24 24 24 23 22 23 22 21 20 20 19 19
20 19 19 20 23 25 23 24 28 30 26 25 25 25 26 28 28 25 24 25 25 25 25 25 25 25 25 24 24 25 25 24 24 24 24 24 23 22 22 22 21 21
18 18 19 20 23 24 23 24 27 28 26 25 24 26 29 29 26 23 23 24 25 27 27 27 27 27 25 24 24 25 25 25 25 25 25 25 25 24 25 25 24 23
16 18 20 21 23 24 24 25 27 29 27 25 25 28 30 27 24 23 24 25 27 29 30 30 29 27 25 24 24 25 25 26 26 26 26 26 26 26 26 26 26 25
15 17 19 22 23 23 24 26 27 29 28 27 27 29 27 24 23 24 25 26 29 31 31 31 29 26 25 25 25 25 25 26 26 26 27 27 28 28 27 26 26 26
15 18 19 21 22 22 25 28 30 33 30 27 29 30 26 24 25 26 27 28 30 31 31 30 29 28 27 26 26 26 25 25 26 26 27 27 28 28 27 26 26 26
17 18 18 20 21 21 25 29 32 33 31 29 31 29 25 24 25 26 28 29 30 31 30 30 30 29 28 27 26 26 25 25 26 27 27 28 28 28 28 28 29 30
17 20 19 19 21 21 24 28 30 30 31 32 31 27 25 25 26 27 28 28 29 30 30 30 30 29 29 28 27 26 26 27 28 28 28 28 29 29 31 31 32 33
15 20 22 22 24 24 26 27 28 29 31 31 29 27 27 28 27 28 28 28 29 30 30 30 30 29 28 27 26 26 26 27 27 27 27 29 30 31 32 32 32 32
13 13 17 21 24 24 26 26 27 29 31 30 28 28 29 30 30 30 29 29 30 32 32 31 29 28 27 25 25 27 27 27 26 25 26 29 30 30 31 32 32 32
Wind_Direction
239 237 241 243 238 235 235 236 238 238 236 232 227 224 224 225 226 229 232 235 237 238 239 239 238 236 235 232 229 229 229 228 229 231 233 235 236 238 240 240 237 234
234 240 247 253 252 245 240 238 238 239 238 235 229 225 226 226 224 226 231 234 236 238 240 238 236 236 236 234 230 228 228 229 230 232 234 236 239 241 244 245 242 237
232 239 245 250 251 247 242 239 238 238 238 238 233 227 227 224 219 222 230 233 232 234 236 234 234 235 236 236 233 231 230 230 231 233 234 236 240 244 246 247 246 241
224 230 236 242 245 242 238 235 235 236 237 237 233 229 226 221 217 220 228 229 227 230 232 232 233 235 236 236 236 236 233 232 233 234 236 238 240 244 245 245 246 245
214 217 224 232 238 239 236 233 232 233 235 234 231 226 222 219 216 218 224 226 224 227 231 232 235 238 239 239 239 239 236 234 234 236 237 240 242 244 245 246 247 248
210 211 217 222 230 235 236 236 235 234 233 230 227 224 219 216 217 219 222 224 224 227 230 232 236 241 243 243 242 241 239 238 237 237 239 242 244 245 245 245 247 249
219 219 221 221 226 234 237 239 240 238 235 229 226 224 219 217 220 224 223 221 223 227 230 232 236 242 245 246 246 243 241 240 239 239 240 242 243 243 243 244 246 249
234 234 233 229 230 236 239 241 242 241 238 233 229 227 224 221 223 228 230 226 224 228 231 231 234 241 246 248 249 247 245 243 241 241 241 242 240 239 241 242 246 250
241 238 238 237 236 239 242 244 242 238 235 235 232 227 224 224 224 230 236 233 230 232 232 230 234 240 245 248 250 249 247 244 243 243 242 240 237 237 239 241 245 249
244 240 238 239 241 242 243 245 242 235 231 233 232 226 223 225 225 229 233 232 231 234 233 231 235 241 244 249 250 248 247 245 245 244 241 238 237 238 241 243 246 250
245 244 242 243 247 244 241 243 241 233 229 230 230 227 225 226 228 229 229 228 229 233 233 231 235 242 246 248 247 245 245 246 244 243 241 239 241 244 247 249 250 252
248 251 249 249 251 245 237 237 236 231 228 228 228 226 223 222 226 230 229 227 228 230 231 232 236 242 246 246 244 244 245 245 243 242 241 242 245 249 252 253 253 254
251 253 251 248 245 239 234 234 233 229 228 227 227 226 221 218 222 227 228 226 227 229 230 234 237 241 244 244 244 245 246 245 244 242 243 245 247 250 252 256 257 256
252 252 251 243 233 229 234 237 232 228 228 229 229 227 222 219 222 226 225 224 228 232 234 237 239 240 242 243 244 245 245 244 243 244 246 248 247 249 250 251 252 252
256 257 254 244 228 221 230 237 228 226 231 233 231 227 222 224 228 228 224 223 228 234 236 236 237 239 241 243 243 244 242 240 241 244 247 248 247 246 244 240 244 249
253 255 254 246 229 219 227 232 219 220 233 237 233 227 222 226 233 230 224 225 230 234 234 234 237 240 243 243 243 243 241 238 240 243 245 246 245 245 245 245 248 255
250 249 247 243 232 224 229 229 215 216 232 240 235 226 220 225 232 226 220 225 230 232 232 232 235 239 244 245 242 241 241 240 241 243 245 246 246 246 249 250 253 260
247 244 242 240 234 228 228 227 218 216 230 242 237 226 220 224 227 222 220 225 228 231 231 231 232 236 242 245 242 240 241 241 242 242 243 245 247 248 251 253 256 259
242 239 241 240 234 226 224 225 220 217 227 241 238 225 220 222 222 223 227 228 228 231 232 231 232 237 241 243 243 243 242 241 242 242 242 246 248 250 253 255 257 259
242 243 242 239 234 228 227 228 222 215 224 239 235 222 219 220 222 228 234 231 228 230 233 234 237 241 243 243 244 244 244 244 245 245 244 246 248 250 253 256 258 259
241 253 248 237 231 230 229 227 219 215 225 236 228 217 217 220 223 229 233 232 230 231 234 238 241 244 243 242 243 244 244 245 247 248 248 248 250 251 253 255 257 259
239 249 244 230 226 230 229 222 214 215 225 229 219 214 221 226 226 229 232 234 235 236 237 239 241 242 241 240 241 242 242 245 247 250 252 253 254 256 256 255 256 257
238 236 234 228 225 228 227 222 219 221 224 220 214 218 229 234 234 235 234 237 240 240 238 237 238 240 240 239 241 242 244 248 250 251 253 255 256 258 257 257 257 258
232 217 220 230 231 229 228 227 228 230 225 217 217 226 237 239 239 238 236 238 240 239 237 237 239 241 242 242 245 247 249 252 253 254 257 259 261 262 261 260 261 264
241 212 210 219 226 232 234 231 228 226 221 218 224 235 241 240 240 238 235 235 237 238 239 239 240 242 243 244 247 252 254 255 256 257 258 261 264 266 266 266 267 269
260 228 218 220 220 224 231 231 227 222 218 221 231 239 241 242 241 239 235 233 234 235 237 239 241 244 244 244 247 252 254 255 256 254 253 255 258 258 258 262 265 266